Location: Unspecified
(50.0830°N, 0.0000°E)
Time: 18:46:09
(UTC+00:00)

N. Korean satellite - Pass Details

Date: 23 November 2019
Orbit: 455 x 507 km, 97.2° (Epoch: 13 December)

Event Time Altitude Azimuth Distance (km) Brightness Sun altitude
Rises 05:57:46 0° 13° (NNE) 2,618 10.3 -13.6°
Reaches altitude 10° 05:59:53 10° 15° (NNE) 1,723 9.3 -13.3°
Maximum altitude 06:03:36 80° 101° (E) 513 6.7 -12.7°
Drops below altitude 10° 06:07:14 10° 190° (S) 1,684 9.4 -12.2°
Sets 06:09:16 0° 192° (SSW) 2,552 10.3 -11.9°
